This is the latest recevied weather packets stored in our database for station/object KC4JES. If no packets are shown the sender has not sent any weather packets the latest 10 day(s).
| Time | Temp. | Humidity | Pressure | Rain* | Wind** | Luminosity | Snow |
|---|---|---|---|---|---|---|---|
| 1777741744 | 22.78° C | 95% | 1009.4 hPa | 3.05 mm | - | 31 W/m² | - |
| 1777741440 | 22.78° C | 95% | 1009.7 hPa | 3.05 mm | - | 30 W/m² | - |
| 1777741136 | 22.78° C | 95% | 1010 hPa | 3.05 mm | - | 22 W/m² | - |
| 1777740834 | 23.33° C | 94% | 1010.8 hPa | 2.29 mm | - | 18 W/m² | - |
| 1777740530 | 23.33° C | 93% | 1011.1 hPa | 2.29 mm | - | 18 W/m² | - |
| 1777740228 | 23.33° C | 92% | 1011.1 hPa | 4.83 mm | - | 23 W/m² | - |
| 1777739923 | 23.89° C | 91% | 1010.9 hPa | 4.32 mm | - | 21 W/m² | - |
| 1777739620 | 23.89° C | 90% | 1010.8 hPa | 0.51 mm | - | 18 W/m² | - |
| 1777739318 | 23.89° C | 89% | 1010.6 hPa | 0 mm | - | 25 W/m² | - |
| 1777739014 | 23.89° C | 89% | 1010.9 hPa | 0 mm | - | 32 W/m² | - |
| 1777738711 | 23.89° C | 89% | 1010.7 hPa | 0 mm | - | 41 W/m² | - |
| 1777738407 | 23.89° C | 89% | 1010.6 hPa | 0 mm | - | 61 W/m² | - |
| 1777738105 | 23.89° C | 89% | 1010.7 hPa | 0 mm | - | 65 W/m² | - |
| 1777737804 | 23.89° C | 90% | 1010.4 hPa | 0 mm | - | 88 W/m² | - |
| 1777737502 | 23.89° C | 91% | 1010.4 hPa | 0 mm | - | 112 W/m² | - |
| 1777737200 | 23.33° C | 90% | 1010.2 hPa | 0 mm | - | 104 W/m² | - |
| 1777736895 | 23.33° C | 91% | 1010.2 hPa | 0 mm | - | 116 W/m² | - |
| 1777736282 | 23.33° C | 91% | 1010.6 hPa | 0 mm | - | 83 W/m² | - |
| 1777735978 | 23.33° C | 91% | 1010.4 hPa | 0 mm | - | 117 W/m² | - |
| 1777735676 | 23.33° C | 92% | 1010.6 hPa | 0 mm | - | 147 W/m² | - |
| 1777735373 | 22.78° C | 93% | 1010.9 hPa | 0 mm | - | 131 W/m² | - |
| 1777735070 | 22.78° C | 93% | 1011 hPa | 0 mm | - | 69 W/m² | - |
| 1777734767 | 22.78° C | 93% | 1010.7 hPa | 0 mm | - | 78 W/m² | - |
| 1777734465 | 22.78° C | 93% | 1010.4 hPa | 0 mm | - | 77 W/m² | - |
| 1777734162 | 22.22° C | 93% | 1010.6 hPa | 0 mm | - | 60 W/m² | - |
* Rain latest hour (hover to see other rain measurements)
** Current wind speed in m/s (hover to see current wind gust speed)